{"data":{"norad_id":59886,"intl_designator":"2024-100B","name":"STARLINK-31975","alt_names":[],"object_type":"PAYLOAD","status":"ACTIVE","operator":null,"country":"US","launch_date":"2024-05-28","launch_site_code":"AFETR","launch_vehicle":null,"mission":null,"orbit_class":"UNKNOWN","rcs_meters":null,"size_class":null,"mass_kg":null,"dimensions":null,"purposes":["comms"],"wikipedia_slug":null,"has_3d_model":false,"image_url":null,"decayed_at":null,"tle_current":{"epoch":"2026-05-25T02:35:03.170112Z","epoch_age_seconds":69022,"freshness":"FRESH","line1":"1 59886U 24100B   26145.10767558 -.00000007  00000+0  92636-5 0  9998","line2":"2 59886  43.0009  53.8628 0000859 268.0325  92.0428 15.27589890112849","mean_motion":15.2758989,"eccentricity":8.59e-5,"inclination_deg":43.0009,"raan_deg":53.8628,"arg_perigee_deg":268.0325,"mean_anomaly_deg":92.0428,"bstar":9.2636e-6,"rev_number":11284,"period_min":94.266138407083,"perigee_km":482.43010863972,"apogee_km":483.60885532332,"semimajor_km":6861.1564819815,"source":"CELESTRAK","updated_at":"2026-05-25T13:38:19.095604Z"}}}